Cortez, CO

10:59 PM MST on November 17, 2019 (GMT -0700)
Cortez Municipal

Weather History for KCEZ - September, 2019

Change the Weather History Date:

Tuesday, September 17, 2019

  Actual Average Record
Temperature  
Mean Temperature 67 °F 60 °F  
Max Temperature 82 °F 77 °F 90 °F (2000)
Min Temperature 51 °F 42 °F 27 °F (2006)
Degree Days  
Heating Degree Days 0 6  
Month to date heating degree days 32 56  
Since 1 July heating degree days 32 68  
Cooling Degree Days 2 0  
Month to date cooling degree days 67 16  
Year to date cooling degree days 547 425  
Growing Degree Days 16 (Base 50)    
Moisture  
Dew Point 45 °F    
Average Humidity 54    
Maximum Humidity 83    
Minimum Humidity 25    
Precipitation  
Precipitation T in 0.07 in 0.26 in (2011)
Month to date precipitation 0.15 0.96  
Year to date precipitation 9.93 9.40  
Sea Level Pressure  
Sea Level Pressure 29.92 in    
Wind  
Wind Speed 8 mph (SSW)    
Max Wind Speed 23 mph    
Max Gust Speed 31 mph    
Visibility 10 miles    
Events Rain    
T = Trace of Precipitation, MM = Missing Value Source: NWS Daily Summary

Daily Weather History Graph

Daily Weather History Graph

Search for Another Location

Airport or City:

Astronomy

Sep. 17, 2019 Rise Set
Actual Time 6:58 AM MDT 7:19 PM MDT
Civil Twilight 6:31 AM MDT 7:45 PM MDT
Nautical Twilight 6:01 AM MDT 8:16 PM MDT
Astronomical Twilight 5:30 AM MDT 8:47 PM MDT
Moon 9:28 PM MDT (9/17) 10:02 AM MDT (9/17)
Length of Visible Light 13h 13m
Length of Day
12h 21m
Waning Gibbous, 89% of the Moon is Illuminated
Sep 17
Waning Gibbous
Sep 21
Last Quarter
Sep 28
New
Oct 5
First Quarter
Oct 13
Full

Hourly Weather History & Observations

Time (MDT) Temp. Dew Point Humidity Pressure Visibility Wind Dir Wind Speed Gust Speed Precip Events Conditions
12:53 AM 57.9 °F 46.0 °F 65% 29.92 in 10.0 mi NNE 5.8 mph - N/A   Clear
1:53 AM 57.9 °F 48.9 °F 72% 29.93 in 10.0 mi NNE 4.6 mph - 0.00 in   Mostly Cloudy
2:53 AM 55.9 °F 46.9 °F 72% 29.93 in 10.0 mi Calm Calm - N/A   Partly Cloudy
3:53 AM 54.0 °F 46.0 °F 75% 29.92 in 10.0 mi NE 4.6 mph - N/A   Partly Cloudy
4:53 AM 55.9 °F 46.0 °F 69% 29.92 in 10.0 mi NNW 4.6 mph - N/A   Clear
5:53 AM 52.0 °F 45.0 °F 77% 29.96 in 10.0 mi Calm Calm - N/A   Clear
6:53 AM 51.1 °F 46.0 °F 83% 29.98 in 10.0 mi ESE 4.6 mph - N/A   Partly Cloudy
7:53 AM 55.9 °F 48.0 °F 75% 29.99 in 10.0 mi Calm Calm - N/A   Clear
8:53 AM 64.9 °F 50.0 °F 58% 29.97 in 8.0 mi West 3.5 mph - 0.00 in Rain Light Rain
9:53 AM 71.1 °F 50.0 °F 47% 29.97 in 10.0 mi South 9.2 mph - 0.00 in   Mostly Cloudy
10:53 AM 73.0 °F 48.0 °F 41% 29.96 in 10.0 mi SSW 12.7 mph - N/A   Scattered Clouds
11:53 AM 75.0 °F 48.0 °F 38% 29.94 in 10.0 mi SSW 17.3 mph 25.3 mph N/A   Partly Cloudy
12:53 PM 77.0 °F 46.0 °F 33% 29.92 in 10.0 mi SW 21.9 mph 31.1 mph N/A   Mostly Cloudy
1:53 PM 78.1 °F 43.0 °F 29% 29.90 in 10.0 mi SW 16.1 mph 26.5 mph N/A   Scattered Clouds
2:53 PM 81.0 °F 44.1 °F 27% 29.88 in 10.0 mi SSW 21.9 mph 31.1 mph N/A   Mostly Cloudy
3:53 PM 80.1 °F 42.1 °F 26% 29.87 in 10.0 mi SW 17.3 mph 26.5 mph N/A   Mostly Cloudy
4:53 PM 79.0 °F 39.0 °F 24% 29.85 in 10.0 mi West 13.8 mph - N/A   Mostly Cloudy
5:01 PM 81.0 °F 39.0 °F 22% 30.07 in 10.0 mi West 17.3 mph 25.3 mph N/A   Mostly Cloudy
5:53 PM 79.0 °F 41.0 °F 26% 29.86 in 10.0 mi SSW 15.0 mph 21.9 mph N/A   Mostly Cloudy
6:53 PM 72.0 °F 42.1 °F 34% 29.88 in 10.0 mi SSW 8.1 mph - N/A   Partly Cloudy
7:53 PM 69.1 °F 41.0 °F 36% 29.89 in 10.0 mi South 5.8 mph - N/A   Mostly Cloudy
8:53 PM 66.9 °F 44.1 °F 44% 29.88 in 10.0 mi SE 4.6 mph - N/A   Overcast
9:53 PM 64.9 °F 42.1 °F 43% 29.88 in 10.0 mi NE 4.6 mph - N/A   Overcast
10:53 PM 64.0 °F 42.1 °F 45% 29.88 in 10.0 mi NE 6.9 mph - N/A   Overcast
11:53 PM 57.0 °F 43.0 °F 59% 29.90 in 10.0 mi East 3.5 mph - N/A   Scattered Clouds